Tracking 31030 objects as of 16-Jul-2025
HD Live streaming from Space Station
objects crossing your sky now

CZ-6A DEB

Track CZ-6A DEB now!
10-day predictions


NORAD ID: 54476
Int'l Code: 2022-151HC
Perigee: 672.8 km
Apogee: 828.6 km
Inclination: 98.6 °
Period: 99.7 minutes
Semi major axis: 7121 km
RCS: Unknown
Launch date: November 11, 2022
Source: People's Republic of China (PRC)
Launch site: Taiyaun Space Center, China (TSC)

Note: This is SATELLITE DEBRIS
Your satellite tracking list
Your tracking list is empty




NASA's NSSDC Master Catalog

Two Line Element Set (TLE):
1 54476U 22151HC  25197.61034944  .00001813  00000-0  50130-3 0  9997
2 54476  98.6364 226.7582 0109347 290.5264  68.4219 14.44536124140221
Source of the keplerian elements: AFSPC